When you browse on this site, cookies collect data to enhance your experience and personalize the content and advertising you see.
Visit our Privacy Policy to learn more. By continuing to use the site, you agree to this use of cookies and data.
  • In Schweiz
  • Länderverzeichnis
  • Für 7 Tage
  • Wassertemperatur
  • Wetterkarte
  • Widgets
  • user-avatar
    Anmelden

    Stündliche Wetter Perth

    Heute, 27 Mai, Mittwoch

    Zeit Temperatur Niederschläge Wind Luftdruck Luftfeuchtigkeit
    00:00 +14°C° 0.1 mm 2 m/S 764 mmHg 79%
    01:00 +15°C° 0.1 mm 2 m/S 764 mmHg 79%
    02:00 +15°C° 0 mm 2 m/S 764 mmHg 78%
    03:00 +14°C° 0.1 mm 2 m/S 764 mmHg 79%
    04:00 +13°C° 0.1 mm 3 m/S 764 mmHg 79%
    05:00 +13°C° 0.1 mm 3 m/S 764 mmHg 79%
    06:00 +13°C° 0 mm 3 m/S 764 mmHg 79%
    07:00 +13°C° 0 mm 3 m/S 764 mmHg 78%
    08:00 +14°C° 0 mm 3 m/S 764 mmHg 77%
    09:00 +16°C° 0.1 mm 3 m/S 764 mmHg 75%
    10:00 +15°C° 0.1 mm 4 m/S 764 mmHg 73%
    11:00 +17°C° 0.1 mm 4 m/S 764 mmHg 71%
    12:00 +17°C° 0.2 mm 5 m/S 763 mmHg 68%
    13:00 +19°C° 0.2 mm 5 m/S 762 mmHg 65%
    14:00 +19°C° 0.2 mm 6 m/S 762 mmHg 62%
    15:00 +19°C° 0.2 mm 6 m/S 762 mmHg 64%
    16:00 +17°C° 0.2 mm 5 m/S 762 mmHg 66%
    17:00 +17°C° 0.2 mm 5 m/S 762 mmHg 69%
    18:00 +17°C° 0.1 mm 4 m/S 762 mmHg 71%
    19:00 +17°C° 0.1 mm 4 m/S 762 mmHg 74%
    20:00 +17°C° 0.1 mm 3 m/S 763 mmHg 77%
    21:00 +17°C° 0.2 mm 3 m/S 763 mmHg 78%
    22:00 +17°C° 0.2 mm 3 m/S 763 mmHg 79%
    23:00 +17°C° 0.2 mm 3 m/S 763 mmHg 80%

    Morgen, 28 Mai, Donnerstag

    Zeit Temperatur Niederschläge Wind Luftdruck Luftfeuchtigkeit
    00:00 +16°C° 0.2 mm 3 m/S 762 mmHg 81%
    01:00 +16°C° 0.2 mm 3 m/S 762 mmHg 82%
    02:00 +16°C° 0.2 mm 3 m/S 762 mmHg 83%
    03:00 +16°C° 0.2 mm 3 m/S 762 mmHg 83%
    04:00 +16°C° 0.2 mm 3 m/S 762 mmHg 83%
    05:00 +14°C° 0.2 mm 3 m/S 762 mmHg 83%
    06:00 +15°C° 0.2 mm 4 m/S 762 mmHg 83%
    07:00 +15°C° 0.2 mm 4 m/S 762 mmHg 83%
    08:00 +15°C° 0.2 mm 4 m/S 762 mmHg 84%
    09:00 +16°C° 0.2 mm 5 m/S 762 mmHg 80%
    10:00 +17°C° 0.2 mm 5 m/S 762 mmHg 77%
    11:00 +17°C° 0.2 mm 6 m/S 762 mmHg 74%
    12:00 +19°C° 0.2 mm 6 m/S 761 mmHg 73%
    13:00 +19°C° 0.2 mm 6 m/S 761 mmHg 73%
    14:00 +19°C° 0.2 mm 6 m/S 760 mmHg 72%
    15:00 +19°C° 0.2 mm 6 m/S 760 mmHg 73%
    16:00 +19°C° 0.2 mm 6 m/S 760 mmHg 73%
    17:00 +19°C° 0.2 mm 5 m/S 760 mmHg 74%
    18:00 +17°C° 0.2 mm 5 m/S 760 mmHg 77%
    19:00 +17°C° 0.2 mm 5 m/S 760 mmHg 80%
    20:00 +16°C° 0.2 mm 5 m/S 760 mmHg 82%
    21:00 +16°C° 0.4 mm 5 m/S 760 mmHg 82%
    22:00 +16°C° 0.4 mm 5 m/S 760 mmHg 81%
    23:00 +16°C° 0.4 mm 5 m/S 760 mmHg 80%

    übermorgen, 29 Mai, Freitag

    Zeit Temperatur Niederschläge Wind Luftdruck Luftfeuchtigkeit
    00:00 +16°C° 0.2 mm 5 m/S 759 mmHg 81%
    01:00 +16°C° 0.2 mm 5 m/S 759 mmHg 82%
    02:00 +16°C° 0.2 mm 5 m/S 758 mmHg 83%
    03:00 +16°C° 0.3 mm 5 m/S 758 mmHg 83%
    04:00 +15°C° 0.3 mm 5 m/S 758 mmHg 83%
    05:00 +15°C° 0.3 mm 5 m/S 757 mmHg 83%
    06:00 +15°C° 0.3 mm 5 m/S 757 mmHg 83%
    07:00 +16°C° 0.3 mm 6 m/S 757 mmHg 83%
    08:00 +16°C° 0.3 mm 6 m/S 757 mmHg 83%
    09:00 +17°C° 0.8 mm 7 m/S 757 mmHg 79%
    10:00 +17°C° 0.8 mm 8 m/S 757 mmHg 75%
    11:00 +18°C° 0.8 mm 9 m/S 756 mmHg 71%
    12:00 +19°C° 0.7 mm 9 m/S 756 mmHg 69%
    13:00 +19°C° 0.7 mm 10 m/S 755 mmHg 67%
    14:00 +19°C° 0.7 mm 10 m/S 755 mmHg 65%
    15:00 +18°C° 1.4 mm 10 m/S 755 mmHg 70%
    16:00 +17°C° 1.4 mm 9 m/S 756 mmHg 75%
    17:00 +16°C° 1.4 mm 8 m/S 756 mmHg 80%
    18:00 +15°C° 0.2 mm 8 m/S 757 mmHg 76%
    19:00 +15°C° 0.2 mm 7 m/S 758 mmHg 72%
    20:00 +14°C° 0.2 mm 7 m/S 759 mmHg 68%
    21:00 +14°C° 0.1 mm 7 m/S 760 mmHg 67%
    22:00 +14°C° 0.1 mm 6 m/S 760 mmHg 65%
    23:00 +14°C° 0.1 mm 6 m/S 761 mmHg 64%

    30 Mai, Samstag

    Zeit Temperatur Niederschläge Wind Luftdruck Luftfeuchtigkeit
    00:00 +13°C° 0.1 mm 6 m/S 761 mmHg 65%
    01:00 +13°C° 0.1 mm 5 m/S 761 mmHg 65%
    02:00 +13°C° 0.1 mm 5 m/S 761 mmHg 65%
    03:00 +13°C° 0.1 mm 4 m/S 762 mmHg 67%
    04:00 +13°C° 0.1 mm 4 m/S 762 mmHg 69%
    05:00 +13°C° 0.1 mm 4 m/S 762 mmHg 71%
    06:00 +13°C° 0.1 mm 3 m/S 763 mmHg 69%
    07:00 +13°C° 0.1 mm 3 m/S 763 mmHg 67%
    08:00 +13°C° 0.1 mm 3 m/S 764 mmHg 66%
    09:00 +14°C° 0 mm 3 m/S 764 mmHg 63%
    10:00 +16°C° 0 mm 3 m/S 764 mmHg 60%
    11:00 +16°C° 0 mm 3 m/S 765 mmHg 56%
    12:00 +16°C° 0.1 mm 3 m/S 764 mmHg 58%
    13:00 +16°C° 0.1 mm 3 m/S 764 mmHg 59%
    14:00 +16°C° 0.1 mm 3 m/S 764 mmHg 61%
    15:00 +16°C° 0 mm 3 m/S 764 mmHg 62%
    16:00 +16°C° 0 mm 3 m/S 764 mmHg 62%
    17:00 +14°C° 0 mm 3 m/S 765 mmHg 63%
    18:00 +15°C° 0 mm 2 m/S 765 mmHg 66%
    19:00 +14°C° 0 mm 2 m/S 765 mmHg 68%
    20:00 +14°C° 0 mm 1 m/S 765 mmHg 71%
    21:00 +14°C° 0 mm 1 m/S 766 mmHg 72%
    22:00 +14°C° 0 mm 2 m/S 766 mmHg 73%
    23:00 +14°C° 0 mm 2 m/S 766 mmHg 74%

    31 Mai, Sonntag

    Zeit Temperatur Niederschläge Wind Luftdruck Luftfeuchtigkeit
    00:00 +14°C° 0 mm 2 m/S 766 mmHg 75%
    01:00 +14°C° 0 mm 2 m/S 766 mmHg 76%
    02:00 +13°C° 0 mm 2 m/S 766 mmHg 78%
    03:00 +13°C° 0 mm 2 m/S 766 mmHg 77%
    04:00 +13°C° 0 mm 2 m/S 766 mmHg 76%
    05:00 +13°C° 0 mm 2 m/S 766 mmHg 76%
    06:00 +13°C° 0 mm 2 m/S 766 mmHg 75%
    07:00 +13°C° 0 mm 2 m/S 767 mmHg 75%
    08:00 +14°C° 0 mm 2 m/S 767 mmHg 74%
    09:00 +15°C° 0 mm 2 m/S 767 mmHg 71%
    10:00 +16°C° 0 mm 2 m/S 767 mmHg 67%
    11:00 +18°C° 0 mm 2 m/S 767 mmHg 64%
    12:00 +18°C° 0.1 mm 2 m/S 767 mmHg 63%
    13:00 +18°C° 0.1 mm 2 m/S 766 mmHg 61%
    14:00 +19°C° 0.1 mm 2 m/S 766 mmHg 60%
    15:00 +18°C° 0.1 mm 2 m/S 766 mmHg 64%
    16:00 +18°C° 0.1 mm 1 m/S 766 mmHg 69%
    17:00 +18°C° 0.1 mm 1 m/S 766 mmHg 74%
    18:00 +16°C° 0 mm 1 m/S 767 mmHg 76%
    19:00 +16°C° 0 mm 1 m/S 767 mmHg 79%
    20:00 +14°C° 0 mm 0 m/S 767 mmHg 82%
    21:00 +15°C° 0 mm 1 m/S 767 mmHg 83%
    22:00 +14°C° 0 mm 1 m/S 767 mmHg 84%
    23:00 +14°C° 0 mm 1 m/S 768 mmHg 84%

    1 Juni, Montag

    Zeit Temperatur Niederschläge Wind Luftdruck Luftfeuchtigkeit
    00:00 +14°C° 0 mm 1 m/S 768 mmHg 84%
    01:00 +13°C° 0 mm 1 m/S 768 mmHg 85%
    02:00 +13°C° 0 mm 1 m/S 768 mmHg 85%
    03:00 +13°C° 0 mm 1 m/S 768 mmHg 85%
    04:00 +13°C° 0 mm 2 m/S 768 mmHg 85%
    05:00 +13°C° 0 mm 2 m/S 768 mmHg 85%
    06:00 +13°C° 0 mm 2 m/S 768 mmHg 84%
    07:00 +13°C° 0 mm 2 m/S 768 mmHg 84%
    08:00 +13°C° 0 mm 2 m/S 769 mmHg 83%
    09:00 +14°C° 0 mm 3 m/S 768 mmHg 75%
    10:00 +17°C° 0 mm 3 m/S 768 mmHg 67%
    11:00 +19°C° 0 mm 3 m/S 768 mmHg 59%
    12:00 +19°C° 0 mm 3 m/S 768 mmHg 56%
    13:00 +20°C° 0 mm 3 m/S 767 mmHg 52%
    14:00 +21°C° 0 mm 3 m/S 767 mmHg 49%
    15:00 +20°C° 0 mm 2 m/S 767 mmHg 51%
    16:00 +19°C° 0 mm 2 m/S 767 mmHg 54%
    17:00 +18°C° 0 mm 2 m/S 767 mmHg 57%
    18:00 +18°C° 0 mm 2 m/S 767 mmHg 59%
    19:00 +17°C° 0 mm 2 m/S 767 mmHg 60%
    20:00 +16°C° 0 mm 2 m/S 768 mmHg 62%
    21:00 +15°C° 0 mm 2 m/S 768 mmHg 63%
    22:00 +14°C° 0 mm 3 m/S 768 mmHg 63%
    23:00 +14°C° 0 mm 3 m/S 768 mmHg 64%
    Mehr zeigen